Location: Maiden
(35.5760°N, 81.2120°W)
Time: 03:43:36
(UTC-04:00)

Cosmos 1346 Rocket - Pass Details

Date: 14 June 2018
Orbit: 523 x 558 km, 81.2° (Epoch: 18 August)

Event Time Altitude Azimuth Distance (km) Brightness Sun altitude
Rises 23:16:07 0° 355° (N) 2,696 7.4 -23.7°
Reaches altitude 10° 23:18:18 10° 359° (N) 1,807 6.2 -23.9°
Enters shadow 23:21:32 51° 33° (NNE) 689 3.3 -24.2°
